Denver Centennial, CO

9:43 PM MDT on March 26, 2017 (GMT -0600)
Centennial

Weather History for KAPA - September, 2013

Change the Weather History Date:

Tuesday, September 10, 2013

  Actual Average Record
Temperature  
Mean Temperature 65 °F -  
Max Temperature 71 °F 77 °F 89 °F (1998)
Min Temperature 58 °F 48 °F 40 °F (2016)
Growing Degree Days 14 (Base 50)    
Moisture  
Dew Point 56 °F    
Average Humidity 71    
Maximum Humidity 84    
Minimum Humidity 57    
Precipitation  
Precipitation 1.02 in - - ()
Month to date precipitation 1.04  
Year to date precipitation 10.85  
Sea Level Pressure  
Sea Level Pressure 30.13 in    
Wind  
Wind Speed 4 mph (North)    
Max Wind Speed 21 mph    
Max Gust Speed 24 mph    
Visibility 7 miles    
Events Fog , Rain , Thunderstorm    
Averages and records for this station are not official NWS values.
T = Trace of Precipitation, MM = Missing Value Source: NWS Daily Summary

Daily Weather History Graph

Daily Weather History Graph

Search for Another Location

Airport or City:

Trip Planner

Search our weather history database for the weather conditions in past years. The results will help you decide how hot, cold, wet, or windy it might be!

Date:

Astronomy

Sep. 10, 2013 Rise Set
Actual Time 6:36 AM MDT 7:15 PM MDT
Civil Twilight 6:09 AM MDT 7:42 PM MDT
Nautical Twilight 5:36 AM MDT 8:14 PM MDT
Astronomical Twilight 5:03 AM MDT 8:47 PM MDT
Moon 12:03 PM MDT (9/10) 10:22 PM MDT (9/10)
Length of Visible Light 13h 33m
Length of Day
12h 39m
Waxing Crescent, 29% of the Moon is Illuminated
Sep 10
Waxing Crescent
Sep 12
First Quarter
Sep 19
Full
Sep 26
Last Quarter
Oct 4
New

Hourly Weather History & Observations

Time (MDT) Temp. Dew Point Humidity Pressure Visibility Wind Dir Wind Speed Gust Speed Precip Events Conditions
12:29 AM 60.8 °F 55.4 °F 82% 30.12 in 10.0 mi NNW 3.5 mph - N/A   Overcast
12:53 AM 60.1 °F 55.0 °F 83% 29.94 in 10.0 mi Calm Calm - N/A   Overcast
1:53 AM 60.1 °F 55.0 °F 83% 29.94 in 10.0 mi NNW 3.5 mph - 0.00 in   Overcast
2:21 AM 60.8 °F 55.4 °F 82% 30.15 in 10.0 mi Calm Calm - N/A   Overcast
2:38 AM 60.8 °F 55.4 °F 82% 30.15 in 9.0 mi Calm Calm - N/A   Overcast
2:53 AM 60.1 °F 55.0 °F 83% 29.95 in 9.0 mi Calm Calm - N/A   Overcast
3:03 AM 60.8 °F 55.4 °F 82% 30.15 in 9.0 mi Calm Calm - N/A   Overcast
3:53 AM 60.1 °F 55.0 °F 83% 29.94 in 9.0 mi Calm Calm - N/A   Overcast
4:40 AM 60.8 °F 55.4 °F 82% 30.16 in 9.0 mi Calm Calm - 0.00 in   Overcast
4:53 AM 60.1 °F 55.0 °F 83% 29.98 in 9.0 mi Calm Calm - 0.00 in   Overcast
5:35 AM 60.8 °F 55.4 °F 82% 30.16 in 7.0 mi Calm Calm - N/A   Overcast
5:53 AM 60.1 °F 55.9 °F 86% 30.01 in 7.0 mi Calm Calm - N/A   Overcast
6:24 AM 60.8 °F 55.4 °F 82% 30.18 in 7.0 mi Calm Calm - N/A   Overcast
6:53 AM 60.1 °F 55.9 °F 86% 30.05 in 6.0 mi NE 4.6 mph - N/A   Overcast
7:53 AM 61.0 °F 55.0 °F 81% 30.07 in 10.0 mi NNE 4.6 mph - N/A   Overcast
8:53 AM 61.0 °F 55.9 °F 83% 30.09 in 10.0 mi Calm Calm - N/A   Overcast
9:20 AM 62.6 °F 53.6 °F 72% 30.23 in 10.0 mi SE 8.1 mph - N/A   Overcast
9:53 AM 63.0 °F 54.0 °F 72% 30.09 in 10.0 mi SE 8.1 mph - N/A   Overcast
10:53 AM 64.0 °F 53.1 °F 67% 30.10 in 10.0 mi SSE 8.1 mph - N/A   Overcast
11:53 AM 64.9 °F 54.0 °F 68% 30.09 in 10.0 mi Variable 3.5 mph - N/A   Overcast
12:53 PM 68.0 °F 53.1 °F 59% 30.07 in 10.0 mi Variable 3.5 mph - N/A   Mostly Cloudy
1:53 PM 70.0 °F 53.1 °F 55% 30.04 in 10.0 mi NNE 8.1 mph - N/A   Overcast
2:53 PM 69.1 °F 55.9 °F 63% 30.02 in 10.0 mi North 12.7 mph - 0.00 in   Overcast
3:36 PM 64.4 °F 57.2 °F 77% 30.18 in 9.0 mi North 18.4 mph - 0.00 in Rain , Thunderstorm Light Thunderstorms and Rain
3:53 PM 64.0 °F 57.9 °F 80% 30.03 in 8.0 mi North 12.7 mph - 0.00 in Rain , Thunderstorm Light Thunderstorms and Rain
4:02 PM 62.6 °F 57.2 °F 82% 30.17 in 8.0 mi WNW 6.9 mph 16.1 mph 0.00 in Thunderstorm Thunderstorm
4:26 PM 60.8 °F 57.2 °F 88% 30.21 in 0.5 mi West 11.5 mph 23.0 mph 0.50 in Fog , Rain , Thunderstorm Heavy Thunderstorms and Rain
4:37 PM 59.0 °F 57.2 °F 94% 30.20 in 0.5 mi Calm Calm - 0.75 in Fog , Rain , Thunderstorm Heavy Thunderstorms and Rain
4:45 PM 59.0 °F 57.2 °F 94% 30.19 in 3.0 mi WNW 5.8 mph - 0.75 in Rain , Thunderstorm Light Thunderstorms and Rain
4:53 PM 60.1 °F 57.9 °F 93% 30.06 in 3.0 mi WNW 8.1 mph - 0.75 in Thunderstorm Overcast
5:36 PM 62.6 °F 59.0 °F 88% 30.21 in 10.0 mi NNW 5.8 mph - N/A   Mostly Cloudy
5:53 PM 62.1 °F 59.0 °F 90% 30.08 in 10.0 mi North 11.5 mph - N/A   Mostly Cloudy
6:09 PM 62.6 °F 59.0 °F 88% 30.22 in 8.0 mi North 8.1 mph - N/A   Overcast
6:35 PM 60.8 °F 59.0 °F 94% 30.22 in 4.0 mi NNW 9.2 mph - 0.01 in Rain Light Rain
6:53 PM 60.1 °F 57.9 °F 93% 30.09 in 5.0 mi NNW 6.9 mph - 0.01 in Rain Light Rain
7:27 PM 60.8 °F 59.0 °F 94% 30.24 in 3.0 mi WNW 4.6 mph - 0.01 in Rain Light Rain
7:53 PM 60.1 °F 59.0 °F 96% 30.11 in 3.0 mi North 9.2 mph - 0.07 in Rain Rain
8:12 PM 60.8 °F 59.0 °F 94% 30.25 in 2.0 mi North 10.4 mph - 0.10 in Rain Rain
8:53 PM 60.1 °F 59.0 °F 96% 30.13 in 2.5 mi NNW 8.1 mph - 0.10 in   Overcast
9:25 PM 60.8 °F 59.0 °F 94% 30.27 in 3.0 mi North 6.9 mph - N/A   Overcast
9:51 PM 60.8 °F 57.2 °F 88% 30.27 in 6.0 mi NE 3.5 mph - 0.01 in Rain Light Rain
9:53 PM 60.1 °F 57.0 °F 90% 30.13 in 6.0 mi NE 3.5 mph - 0.01 in Rain Light Rain
10:38 PM 59.0 °F 57.2 °F 94% 30.28 in 2.0 mi NE 3.5 mph - 0.03 in Rain Rain
10:51 PM 59.0 °F 57.2 °F 94% 30.27 in 2.0 mi NE 5.8 mph - 0.05 in Rain Light Rain
10:53 PM 59.0 °F 57.9 °F 96% 30.13 in 2.0 mi NE 6.9 mph - 0.06 in Rain Light Rain
11:28 PM 59.0 °F 57.2 °F 94% 30.27 in 5.0 mi NNW 5.8 mph - 0.00 in Rain Light Rain
11:39 PM 59.0 °F 57.2 °F 94% 30.27 in 4.0 mi WNW 4.6 mph - 0.01 in Rain Light Rain
11:53 PM 59.0 °F 57.0 °F 93% 30.12 in 6.0 mi Calm Calm - 0.01 in   Overcast